Multibeam Report for RR1007


Ship Name: Roger Revelle
Chief Scientist: Lien, Ren-Chieh
University of Washington
Source Organization: Rolling Deck to Repository
Start Date: 2010-06-01
End Date: 2010-06-11


View ISO Metadata

Visit the full NCEI Bathymetry Viewer


Multibeam Bathymetry

Cruise Details

Project: Internal Waves in Straits Experiment (IWISE)
Instrument: Simrad EM122

Data Quality

Number of Files: 98
Number of Records: 96304
BATHYMETRY DATA Quantity Percentage
Number of Beams 41602896 100%
Number of Good Beams 38028932 91.41%
Number of Zero Beams 0 0%
Number of Flagged Beams 3573964 8.59%
AMPLITUDE DATA Quantity Percentage
Number of Beams 41602896 100%
Number of Good Beams 38028932 91.41%
Number of Zero Beams 0 0%
Number of Flagged Beams 3573964 8.59%
SIDESCAN DATA Quantity Percentage
Number of Pixels 98614272 100%
Number of Good Pixels 82793483 83.96%
Number of Zero Pixels 0 0%
Number of Flagged Pixels 15820789 16.04%

Navigation Totals

Total Time: 146.5667 hours
Total Track Length: 1580.0375 km
Average Speed: 10.78 km/hr (5.8207 knots)

Cruise Bounds

Northern Extent: 21.939812
Southern Extent: 19.209944
Western Extent: 120.27781
Eastern Extent: 122.50047

Limits

Minimum Sonar Depth 3.9066 Maximum Sonar Depth 7.3068
Minimum Altitude 0 Maximum Altitude 7631.6201
Minimum Depth 4.9626 Maximum Depth 8152.2993
Minimum Amplitude 0 Maximum Amplitude 4.8
Minimum Sidescan 0 Maximum Sidescan 4.5

File Information

Full Resolution Bathymetry as collected (raw): 95

Files File Size Description
0000_20100601_120407_RV_Revelle.all.mb58.gz 407.5KB Kongsberg multibeam vendor format
0001_20100601_120506_RV_Revelle.all.mb58.gz 23.62MB Kongsberg multibeam vendor format
0002_20100601_124409_RV_Revelle.all.mb58.gz 47.20MB Kongsberg multibeam vendor format
0003_20100601_144403_RV_Revelle.all.mb58.gz 42.65MB Kongsberg multibeam vendor format
0004_20100601_164353_RV_Revelle.all.mb58.gz 39.60MB Kongsberg multibeam vendor format
0005_20100601_184357_RV_Revelle.all.mb58.gz 43.42MB Kongsberg multibeam vendor format
0006_20100601_204354_RV_Revelle.all.mb58.gz 46.85MB Kongsberg multibeam vendor format
0007_20100601_224357_RV_Revelle.all.mb58.gz 35.49MB Kongsberg multibeam vendor format
0008_20100602_004402_RV_Revelle.all.mb58.gz 41.81MB Kongsberg multibeam vendor format
0009_20100602_024358_RV_Revelle.all.mb58.gz 50.12MB Kongsberg multibeam vendor format
0010_20100602_044356_RV_Revelle.all.mb58.gz 65.43MB Kongsberg multibeam vendor format
0011_20100602_064356_RV_Revelle.all.mb58.gz 59.99MB Kongsberg multibeam vendor format
0012_20100602_084357_RV_Revelle.all.mb58.gz 39.69MB Kongsberg multibeam vendor format
0013_20100602_104337_RV_Revelle.all.mb58.gz 40.45MB Kongsberg multibeam vendor format
0014_20100602_124343_RV_Revelle.all.mb58.gz 41.03MB Kongsberg multibeam vendor format
0015_20100602_144345_RV_Revelle.all.mb58.gz 55.28MB Kongsberg multibeam vendor format
0016_20100602_164337_RV_Revelle.all.mb58.gz 11.20MB Kongsberg multibeam vendor format
0017_20100602_183038_RV_Revelle.all.mb58.gz 49.68MB Kongsberg multibeam vendor format
0018_20100602_203031_RV_Revelle.all.mb58.gz 39.00MB Kongsberg multibeam vendor format
0019_20100602_223029_RV_Revelle.all.mb58.gz 37.91MB Kongsberg multibeam vendor format
0020_20100603_003032_RV_Revelle.all.mb58.gz 49.28MB Kongsberg multibeam vendor format
0021_20100603_023028_RV_Revelle.all.mb58.gz 42.39MB Kongsberg multibeam vendor format
0022_20100603_043032_RV_Revelle.all.mb58.gz 40.54MB Kongsberg multibeam vendor format
0023_20100603_063030_RV_Revelle.all.mb58.gz 46.84MB Kongsberg multibeam vendor format
0024_20100603_083029_RV_Revelle.all.mb58.gz 48.31MB Kongsberg multibeam vendor format
0025_20100603_103028_RV_Revelle.all.mb58.gz 11.01MB Kongsberg multibeam vendor format
0026_20100603_121823_RV_Revelle.all.mb58.gz 16.3KB Kongsberg multibeam vendor format
0027_20100603_121851_RV_Revelle.all.mb58.gz 6.30MB Kongsberg multibeam vendor format
0028_20100603_123850_RV_Revelle.all.mb58.gz 29.65MB Kongsberg multibeam vendor format
0030_20100604_052635_RV_Revelle.all.mb58.gz 32.31MB Kongsberg multibeam vendor format
0031_20100604_072642_RV_Revelle.all.mb58.gz 36.13MB Kongsberg multibeam vendor format
0032_20100604_092641_RV_Revelle.all.mb58.gz 33.80MB Kongsberg multibeam vendor format
0033_20100604_112647_RV_Revelle.all.mb58.gz 12.43MB Kongsberg multibeam vendor format
0034_20100604_122233_RV_Revelle.all.mb58.gz 7.76MB Kongsberg multibeam vendor format
0035_20100604_131852_RV_Revelle.all.mb58.gz 8.70MB Kongsberg multibeam vendor format
0036_20100604_141856_RV_Revelle.all.mb58.gz 5.24MB Kongsberg multibeam vendor format
0039_20100605_042840_RV_Revelle.all.mb58.gz 9.35MB Kongsberg multibeam vendor format
0040_20100605_062541_RV_Revelle.all.mb58.gz 33.81MB Kongsberg multibeam vendor format
0041_20100605_082542_RV_Revelle.all.mb58.gz 24.14MB Kongsberg multibeam vendor format
0042_20100605_095231_RV_Revelle.all.mb58.gz 4.8KB Kongsberg multibeam vendor format
0043_20100605_095249_RV_Revelle.all.mb58.gz 6.7KB Kongsberg multibeam vendor format
0044_20100605_095307_RV_Revelle.all.mb58.gz 33.34MB Kongsberg multibeam vendor format
0045_20100605_115318_RV_Revelle.all.mb58.gz 32.71MB Kongsberg multibeam vendor format
0046_20100605_135320_RV_Revelle.all.mb58.gz 33.30MB Kongsberg multibeam vendor format
0047_20100605_155313_RV_Revelle.all.mb58.gz 36.48MB Kongsberg multibeam vendor format
0048_20100605_175312_RV_Revelle.all.mb58.gz 35.84MB Kongsberg multibeam vendor format
0049_20100605_195318_RV_Revelle.all.mb58.gz 34.42MB Kongsberg multibeam vendor format
0050_20100605_215315_RV_Revelle.all.mb58.gz 34.53MB Kongsberg multibeam vendor format
0051_20100605_235307_RV_Revelle.all.mb58.gz 40.90MB Kongsberg multibeam vendor format
0052_20100606_015309_RV_Revelle.all.mb58.gz 52.40MB Kongsberg multibeam vendor format
0053_20100606_035316_RV_Revelle.all.mb58.gz 39.50MB Kongsberg multibeam vendor format
0054_20100606_055308_RV_Revelle.all.mb58.gz 8.10MB Kongsberg multibeam vendor format
0055_20100606_062111_RV_Revelle.all.mb58.gz 31.18MB Kongsberg multibeam vendor format
0056_20100606_081554_RV_Revelle.all.mb58.gz 21.75MB Kongsberg multibeam vendor format
0057_20100606_094440_RV_Revelle.all.mb58.gz 36.32MB Kongsberg multibeam vendor format
0058_20100606_114432_RV_Revelle.all.mb58.gz 34.54MB Kongsberg multibeam vendor format
0059_20100606_134434_RV_Revelle.all.mb58.gz 32.04MB Kongsberg multibeam vendor format
0060_20100606_154436_RV_Revelle.all.mb58.gz 35.32MB Kongsberg multibeam vendor format
0061_20100606_174438_RV_Revelle.all.mb58.gz 36.33MB Kongsberg multibeam vendor format
0062_20100606_194431_RV_Revelle.all.mb58.gz 44.74MB Kongsberg multibeam vendor format
0063_20100606_214432_RV_Revelle.all.mb58.gz 45.24MB Kongsberg multibeam vendor format
0064_20100606_234438_RV_Revelle.all.mb58.gz 40.89MB Kongsberg multibeam vendor format
0065_20100607_014431_RV_Revelle.all.mb58.gz 45.37MB Kongsberg multibeam vendor format
0066_20100607_034431_RV_Revelle.all.mb58.gz 51.69MB Kongsberg multibeam vendor format
0067_20100607_054429_RV_Revelle.all.mb58.gz 50.25MB Kongsberg multibeam vendor format
0068_20100607_074430_RV_Revelle.all.mb58.gz 8.60MB Kongsberg multibeam vendor format
0069_20100607_080610_RV_Revelle.all.mb58.gz 53.81MB Kongsberg multibeam vendor format
0070_20100607_100605_RV_Revelle.all.mb58.gz 56.21MB Kongsberg multibeam vendor format
0071_20100607_120611_RV_Revelle.all.mb58.gz 35.53MB Kongsberg multibeam vendor format
0072_20100607_140615_RV_Revelle.all.mb58.gz 24.27MB Kongsberg multibeam vendor format
0074_20100607_153410_RV_Revelle.all.mb58.gz 32.80MB Kongsberg multibeam vendor format
0075_20100607_173411_RV_Revelle.all.mb58.gz 19.35MB Kongsberg multibeam vendor format
0076_20100607_184441_RV_Revelle.all.mb58.gz 4.3KB Kongsberg multibeam vendor format
0077_20100607_184531_RV_Revelle.all.mb58.gz 35.05MB Kongsberg multibeam vendor format
0078_20100607_204523_RV_Revelle.all.mb58.gz 36.69MB Kongsberg multibeam vendor format
0079_20100607_224530_RV_Revelle.all.mb58.gz 36.34MB Kongsberg multibeam vendor format
0080_20100608_004522_RV_Revelle.all.mb58.gz 32.21MB Kongsberg multibeam vendor format
0081_20100608_024530_RV_Revelle.all.mb58.gz 32.72MB Kongsberg multibeam vendor format
0082_20100608_044527_RV_Revelle.all.mb58.gz 4.01MB Kongsberg multibeam vendor format
0083_20100608_050017_RV_Revelle.all.mb58.gz 33.17MB Kongsberg multibeam vendor format
0084_20100608_070021_RV_Revelle.all.mb58.gz 18.03MB Kongsberg multibeam vendor format
0085_20100608_080649_RV_Revelle.all.mb58.gz 1.61MB Kongsberg multibeam vendor format
0086_20100609_120736_RV_Revelle.all.mb58.gz 16.44MB Kongsberg multibeam vendor format
0087_20100610_001801_RV_Revelle.all.mb58.gz 30.04MB Kongsberg multibeam vendor format
0088_20100610_021805_RV_Revelle.all.mb58.gz 33.05MB Kongsberg multibeam vendor format
0089_20100610_041811_RV_Revelle.all.mb58.gz 24.56MB Kongsberg multibeam vendor format
0090_20100610_061710_RV_Revelle.all.mb58.gz 261.8KB Kongsberg multibeam vendor format
0091_20100610_062530_RV_Revelle.all.mb58.gz 1.37MB Kongsberg multibeam vendor format
0092_20100610_063758_RV_Revelle.all.mb58.gz 5.65MB Kongsberg multibeam vendor format
0094_20100610_071449_RV_Revelle.all.mb58.gz 52.25MB Kongsberg multibeam vendor format
0095_20100610_091433_RV_Revelle.all.mb58.gz 38.06MB Kongsberg multibeam vendor format
0096_20100610_111437_RV_Revelle.all.mb58.gz 40.32MB Kongsberg multibeam vendor format
0097_20100610_131436_RV_Revelle.all.mb58.gz 42.16MB Kongsberg multibeam vendor format
0098_20100610_151435_RV_Revelle.all.mb58.gz 43.47MB Kongsberg multibeam vendor format
0099_20100610_171437_RV_Revelle.all.mb58.gz 27.75MB Kongsberg multibeam vendor format

Full Resolution Bathymetry (processed): 1

Files File Size Description
rr1007.b93.mb164.gz 259.90MB NGDC binary hydrographic sounding format

Metadata Files: 1

Files File Size Description
RR1007_Multibeam.xml NGDC created ISO metadata

Ancillary Files: 1

Files File Size Description
xbt.tar.gz 106.2KB Expendable Bathythermograph (XBT) data